This demonstration page uses our WeatherBlox Daily Observations layout. Learn more.

Left ArrowRight Arrow

53.62937, 11.41316

Hourly Observations for April 19, 2016

Temp ( °F °C ) Dew Point ( °F °C ) Humidity (%) Winds ( mph kmh ) Pressure ( in mb ) Visibility ( mi km ) Precip ( " mm )
6:20 am 06:20 Partly Cloudy 41 5 39 4 93 93 WSW 9 15 30.06 1018 30 48 N/A
6:50 am 06:50 Mostly Sunny 41 5 39 4 93 93 WSW 12 19 30.06 1018 7 11 N/A
7:20 am 07:20 Mostly Sunny 45 7 41 5 87 87 WSW 14 22 30.06 1018 7 11 N/A
7:50 am 07:50 Mostly Sunny 45 7 41 5 87 87 WSW 16 26 30.06 1018 7 11 N/A
8:20 am 08:20 Mostly Sunny 46 8 41 5 82 82 WSW 18 30 30.06 1018 7 11 N/A
8:50 am 08:50 Partly Cloudy 48 9 41 5 76 76 WSW 17 28 30.06 1018 30 48 N/A
9:20 am 09:20 Mostly Cloudy 48 9 41 5 76 76 W 21 33 30.06 1018 30 48 N/A
9:35 am 09:35 Mostly Cloudy 48 9 41 5 76 76 W 20 31 30.06 1018 30 48 N/A
9:50 am 09:50 Mostly Cloudy 48 9 41 5 76 76 W 21 33 30.06 1018 30 48 N/A
10:20 am 10:20 Mostly Cloudy 50 10 39 4 67 67 W 17 28 30.06 1018 30 48 N/A
10:50 am 10:50 Mostly Cloudy 50 10 37 3 62 62 W 21 33 30.06 1018 30 48 N/A
11:20 am 11:20 Mostly Cloudy with Light Showers 50 10 43 6 76 76 W 16 26 30.06 1018 30 48 N/A
11:40 am 11:40 Partly Cloudy 52 11 39 4 62 62 W 17 28 30.06 1018 30 48 N/A
11:50 am 11:50 Partly Cloudy 52 11 37 3 58 58 W 21 33 30.06 1018 30 48 N/A
12:13 pm 12:13 Mostly Sunny 54 12 34 1 47 47 W 22 35 30.06 1018 7 11 N/A
12:17 pm 12:17 Partly Cloudy 52 11 32 0 47 47 W 22 35 30.06 1018 30 48 N/A
12:20 pm 12:20 Mostly Sunny 52 11 34 1 50 50 W 23 37 30.06 1018 7 11 N/A
12:50 pm 12:50 Mostly Sunny 50 10 34 1 54 54 W 23 37 30.09 1019 7 11 N/A
1:20 pm 13:20 Windy with Rain Showers Likely 48 9 41 5 76 76 W 23 37 30.09 1019 30 48 N/A
1:50 pm 13:50 Partly Cloudy 54 12 36 2 51 51 W 23 37 30.09 1019 30 48 N/A
2:20 pm 14:20 Mostly Cloudy 48 9 37 3 66 66 W 24 39 30.12 1020 30 48 N/A
2:50 pm 14:50 Windy with Rain Showers Likely 50 10 34 1 54 54 W 21 33 30.12 1020 30 48 N/A
3:20 pm 15:20 Mostly Cloudy 48 9 39 4 71 71 W 20 31 30.12 1020 30 48 N/A
3:50 pm 15:50 Windy with Rain Showers Likely 45 7 37 3 76 76 W 20 31 30.12 1020 30 48 N/A
4:20 pm 16:20 Partly Cloudy 50 10 41 5 71 71 W 15 24 30.12 1020 30 48 N/A
4:50 pm 16:50 Partly Cloudy 52 11 37 3 58 58 W 21 33 30.12 1020 30 48 N/A
5:20 pm 17:20 Mostly Cloudy 50 10 36 2 58 58 W 21 33 30.12 1020 30 48 N/A
5:50 pm 17:50 Mostly Sunny 50 10 34 1 54 54 W 21 33 30.12 1020 7 11 N/A
6:20 pm 18:20 Mostly Cloudy 50 10 32 0 50 50 WNW 18 30 30.15 1021 30 48 N/A
6:50 pm 18:50 Mostly Cloudy 50 10 36 2 58 58 W 21 33 30.15 1021 30 48 N/A

Powered by AerisWeather